SCP
0 0 0 0 0 0 0 0 0 0 0 0 0 0 0 0 0 0 0 0 0 0 0 0 0 0 0 0 0 0 0 0 0 0 0 -0 0 0 0 0 0 -0 -0 -0 0 0 -0 0 -0 0 0 0 0 0
0 0 0 0 0 0 0 0 0 0 0 0 0 0 0 0 0 0 0 0 0 0 0 0 0 0 -0 0 0 0 0 0 0 0 0 -0 -0 0 0 0 0 -0 0 0 -0 0 0 0 0 0 0 0 0 0
0 0 0 0 0 0 0 0 0 0 0 0 0 0 0 0 0 0 0 0 0 0 0 0 0 0 0 0 0 0 0 0 0 0 0 0 0 0 0 0 -0 0 0 -0 0 0 0 0 0 0 0 0 0 0
0 0 0 0 0 0 0 0 0 0 0 0 0 0 0 0 0 0 0 0 0 0 0 0 0 0 0 0 0 0 0 0 0 0 0 0 -0 0 0 0 0 0 -0 -0 0 0 0 0 -0 0 0 0 0 0
0 0 0 0 0 0 0 0 0 0 0 0 0 0 0 0 0 0 0 0 0 0 0 0 0 0 0 0 0 0 0 0 0 0 0 -0 0 0 0 0 0 -0 0 -0 0 0 0 0 0 0 0 0 0 0
0 0 0 0 0 0 0 0 0 0 0 0 0 0 0 0 0 0 0 0 0 0 0 0 0 0 0 0 0 0 0 0 0 0 0 0 0 -0 -0 0 0 0 0 0 0 0 0 0 -0 0 0 0 0 0
0 0 0 0 0 0 0 0 0 0 0 0 0 0 0 0 0 0 0 0 0 0 0 0 0 0 0 0 0 0 0 0 0 0 0 -0 -0 -0 -0 0 -0 0 0 -0 0 0 -0 0 -0 0 0 0 0 0
0 0 0 0 0 0 0 0 0 0 0 0 0 0 0 0 0 0 0 0 0 0 0 0 0 0 0 0 0 0 0 0 0 0 0 0 -0 -0 -0 -0 0 0 0 0 0 0 -0 0 -0 0 0 0 0 0
0 0 0 0 0 0 0 0 0 0 0 0 0 0 0 0 0 0 0 0 0 0 0 0 0 0 0 0 0 0 0 0 0 0 0 0 -0 -0 -0 0 0 0 0 0 0 0 0 -0 -0 0 0 0 0 0
0 0 0 0 0 0 0 0 0 0 0 0 0 0 0 0 0 0 0 0 0 0 0 0 0 0 0 0 0 0 0 0 0 0 0 0 -0 0 0 0 0 0 0 0 0 0 0 0 0 -0 0 0 0 0
0 0 0 0 0 0 0 0 0 0 0 0 0 0 0 0 0 0 0 0 0 0 0 0 0 0 -0 -0 -0 0 0 0 0 0 0 0 -0 0 0 0 0 0 0 0 0 0 0 0 0 0 0 0 0 0
0 0 0 0 0 0 0 0 0 0 0 0 0 0 0 0 0 0 0 0 0 0 0 0 0 -0 0 0 0 0 0 0 0 0 0 0 0 -0 0 0 -0 0 0 0 0 0 0 0 0 0 0 0 0 0
0 0 0 0 0 0 0 0 0 0 0 0 0 0 0 0 0 0 0 0 0 0 0 0 0 0 0 0 0 0 0 0 0 0 0 0 0 0 0 0 0 -0 0 0 0 0 0 0 0 0 0 0 0 0
0 0 0 0 0 -0 0 0 0 0 0 0 0 0 0 0 0 0 0 0 0 0 0 -0 0 -0 -0 0 0 0 0 0 0 0 0 0 0 0 0 0 -0 -0 0 0 0 0 0 0 0 0 0 0 0 0
0 0 0 0 0 0 0 0 0 0 0 0 0 0 0 0 0 0 0 0 0 0 0 0 -0 -0 0 0 0 0 0 0 0 0 0 0 0 0 -0 0 -0 -0 -0 0 0 0 0 0 0 0 0 0 0 0
0 0 0 0 0 0 0 0 0 0 0 0 0 0 0 0 0 0 0 0 0 0 0 0 0 0 0 0 0 0 0 0 0 0 0 0 0 0 0 -0 -0 -0 -0 -0 0 0 0 0 0 0 0 0 0 0
0 0 0 0 0 0 0 0 0 0 0 0 0 0 0 0 0 -0 0 0 0 0 -0 -0 0 0 0 0 0 0 0 0 0 0 0 0 0 0 0 -0 0 -0 -0 0 0 0 0 0 0 0 0 0 0 0
0 0 0 0 0 0 0 0 0 0 0 0 0 0 0 0 0 0 0 -0 -0 -0 0 -0 0 0 0 0 0 0 0 0 0 0 0 0 0 -0 -0 0 -0 0 -0 -0 -0 0 0 0 0 0 0 0 0 0
0 0 0 0 0 0 0 0 0 0 0 0 0 0 0 0 0 0 0 0 -0 -0 0 0 0 0 0 0 0 0 0 0 0 0 0 0 -0 -0 -0 -0 0 0 -0 0 0 -0 -0 0 0 0 0 0 0 0
0 0 -0 0 0 0 0 0 0 0 0 0 0 0 0 0 -0 -0 -0 0 0 0 0 0 0 0 0 0 0 0 0 0 0 0 0 0 -0 -0 -0 -0 -0 -0 -0 -0 -0 -0 0 0 0 0 0 0 0 0
0 0 0 -0 0 0 0 0 0 0 0 0 0 0 0 -0 -0 0 0 0 0 -0 0 0 0 0 0 0 0 0 0 0 0 0 0 -0 -0 -0 -0 -0 -0 -0 -0 -0 0 0 -0 -0 0 -0 0 0 0 0
0 0 0 0 0 0 0 0 0 0 0 0 0 0 0 0 0 0 0 0 -0 -0 0 0 0 0 -0 0 0 0 0 0 0 0 0 -0 -0 -0 -0 -0 -0 -0 0 -0 -0 0 -0 0 0 0 0 0 0 0
0 0 0 0 0 0 0 0 0 0 0 0 0 0 0 0 0 0 0 0 0 0 0 0 0 0 0 0 0 0 0 0 0 0 0 -0 -0 -0 -0 -0 -0 -0 -0 0 0 0 0 0 0 0 0 0 0 0
0 0 0 -0 0 0 0 0 0 0 0 0 0 0 0 0 0 0 0 0 0 0 0 -0 0 0 0 0 0 0 0 0 0 0 0 0 0 -0 -0 -0 -0 -0 0 0 0 0 0 0 0 0 0 0 0 0
-0 -0 -0 0 0 0 0 0 0 0 0 0 0 0 0 0 0 0 0 0 0 -0 -0 -0 0 0 0 -0 -0 0 0 0 0 0 0 0 0 0 0 0 0 0 0 0 0 0 0 0 0 0 0 0 0 -0
-0 -0 -0 -0 -0 0 0 0 0 0 0 0 0 0 0 0 0 0 0 0 0 0 0 0 0 0 0 -0 0 0 0 0 0 -0 0 0 0 0 0 0 0 0 0 0 0 0 -0 -0 0 -0 0 0 0 0
0 -0 -0 0 0 0 0 0 0 0 0 0 0 0 0 0 0 0 0 0 0 0 0 0 0 0 0 0 0 0 0 0 0 0 0 0 0 0 0 0 0 0 0 0 0 0 0 -0 -0 -0 -0 0 0 -0
-0 -0 0 -0 0 0 0 0 0 0 0 0 0 0 0 0 0 0 0 0 0 0 0 0 0 0 0 -0 0 0 0 0 0 0 0 0 0 0 0 0 0 0 0 0 0 0 0 0 0 0 0 0 0 0
0 0 0 0 0 0 0 0 0 0 0 0 0 0 0 0 0 0 0 0 0 0 0 0 0 0 0 0 0 0 0 0 0 0 -0 0 0 0 0 0 0 0 0 0 0 0 0 0 0 0 0 -0 -0 0
0 0 0 0 0 0 0 0 0 0 0 0 0 0 0 0 0 0 0 0 0 0 0 0 0 0 0 0 0 0 0 0 0 0 0 0 0 0 0 0 0 0 0 0 0 0 0 0 0 0 0 0 0 0
0 0 0 0 0 0 0 0 0 0 0 0 0 0 0 0 0 0 0 0 0 0 0 0 0 0 0 0 0 0 0 0 0 0 0 0 0 0 0 0 0 0 0 0 -0 0 0 0 0 0 0 0 0 0
0 0 0 0 0 0 0 0 0 0 0 0 0 0 -0 0 0 0 0 0 0 0 0 0 0 0 0 0 0 0 0 0 0 0 0 0 0 0 0 0 0 0 0 0 -0 0 -0 -0 0 0 0 -0 -0 0
0 0 0 0 0 0 0 0 0 0 0 0 0 0 0 0 0 0 0 0 0 0 0 0 0 0 0 0 0 0 0 -0 -0 -0 -0 0 0 0 -0 0 0 0 0 0 0 -0 -0 -0 0 0 0 -0 0 0
Wind_Speed_500mb
47 47 48 48 49 51 51 51 51 51 50 48 44 46 49 54 45 42 33 30 21 18 54 39 33 42 38 33 21 33 26 16 11 15 10 14 10 11 12 23 7 9 14 12 14 10 10 61 32 18 27 59 40 40
44 44 45 45 45 44 45 45 46 46 44 45 48 47 51 51 46 41 39 28 18 30 47 63 51 46 52 41 35 16 26 26 11 6 6 8 16 6 18 8 9 4 9 11 10 9 22 43 27 56 37 30 31 34
45 45 47 49 47 46 44 42 42 43 46 46 44 46 50 49 42 41 35 20 17 24 51 30 27 21 25 25 28 18 5 14 16 18 7 7 8 4 9 9 16 2 10 8 18 7 32 27 55 62 30 29 29 35
44 44 44 46 47 48 45 45 43 43 43 45 40 41 47 42 32 38 35 24 22 15 15 12 13 21 23 23 27 38 41 32 26 31 10 8 7 8 5 11 10 9 23 19 14 12 35 15 55 49 22 24 36 45
43 44 44 45 47 47 47 46 44 45 47 47 45 35 31 25 30 30 31 33 26 15 15 36 56 15 5 28 38 31 31 30 17 15 8 15 10 10 3 7 2 10 9 9 7 28 13 33 51 25 24 30 45 58
44 45 45 46 47 47 47 45 43 44 44 39 35 33 27 24 25 15 12 12 28 25 12 10 21 26 21 19 21 23 22 18 17 14 20 14 4 8 6 4 2 8 14 21 13 43 33 33 26 24 34 37 52 62
44 44 44 45 46 47 48 45 41 39 37 34 33 27 27 26 27 20 11 8 14 30 8 16 10 7 7 19 24 17 15 16 18 12 10 16 9 7 6 5 3 11 13 17 18 22 15 25 17 27 41 53 65 69
41 41 41 42 43 44 46 43 36 32 31 27 22 21 24 22 27 36 30 34 15 16 11 8 11 19 17 20 19 19 16 16 12 10 22 20 9 3 4 6 3 7 10 12 14 14 11 13 21 32 45 52 58 63
39 40 41 40 39 40 43 38 30 23 25 19 18 22 20 22 16 13 11 16 19 18 9 11 9 5 8 21 13 7 6 6 7 8 16 9 8 4 9 13 7 3 1 7 10 11 14 21 22 25 35 42 51 49
39 39 39 39 38 38 39 31 17 22 20 20 21 11 10 9 13 7 16 15 21 14 15 12 30 19 12 19 9 14 9 4 4 10 9 7 5 8 4 6 5 6 6 3 4 7 10 17 23 25 34 39 44 50
37 37 38 36 34 33 31 20 18 21 20 20 8 11 12 8 10 8 11 11 14 9 15 18 34 24 30 15 11 11 4 2 5 1 6 6 2 9 10 8 9 10 6 4 6 9 8 14 22 31 35 42 47 51
36 37 38 37 35 29 24 14 18 26 18 10 10 13 9 11 14 9 7 10 14 10 20 24 16 26 9 6 12 5 3 6 8 3 2 5 8 19 10 12 14 11 8 8 11 13 12 15 19 26 32 38 47 55
40 41 41 37 35 30 21 17 19 33 37 22 8 7 9 12 9 9 13 9 8 10 12 10 10 15 13 15 12 5 7 7 4 2 5 4 21 15 14 14 16 11 14 9 16 17 17 17 20 26 36 38 42 41
46 46 46 39 37 28 22 19 20 26 29 11 10 9 11 10 12 15 21 14 12 5 17 25 17 14 15 10 9 7 2 4 5 4 2 8 22 19 19 16 20 19 15 16 19 21 23 24 25 30 37 41 36 38
48 50 48 42 36 30 25 22 22 35 23 13 11 10 18 29 29 12 12 11 9 13 17 20 16 17 7 7 6 6 5 8 4 6 7 21 24 21 26 22 20 24 24 23 22 24 27 33 34 34 38 39 40 37
52 49 50 44 29 20 21 24 29 55 14 12 16 11 30 24 22 24 22 13 14 34 37 22 7 7 11 6 8 13 7 7 6 6 20 16 22 23 24 27 24 24 26 26 25 27 30 31 34 36 36 35 35 30
45 54 45 40 25 29 28 27 43 21 17 13 16 34 43 49 37 21 13 24 36 47 18 11 10 11 6 7 8 5 3 3 9 8 12 17 26 27 25 26 27 28 28 28 28 28 27 27 28 28 29 27 26 25
53 42 37 29 23 24 38 48 26 17 18 26 20 32 39 33 29 15 23 31 36 39 39 10 15 11 6 5 4 4 4 12 6 8 13 24 28 31 29 29 29 29 27 28 27 26 29 31 31 28 27 26 25 24
47 35 30 32 34 27 22 26 22 11 30 30 32 36 25 28 33 36 36 36 48 54 11 8 12 7 11 9 8 2 1 6 12 6 16 26 33 34 32 29 27 25 23 23 24 23 23 26 23 25 26 29 28 29
38 42 47 42 29 18 14 12 16 13 16 22 34 42 23 32 33 33 34 40 34 24 16 8 9 11 19 9 6 5 5 5 10 15 19 26 33 34 32 29 27 26 24 22 21 23 22 23 23 28 28 29 27 27
34 35 39 54 38 36 10 9 16 15 14 15 22 31 21 28 32 31 35 35 33 12 14 24 17 15 23 7 4 1 5 5 5 2 19 30 40 36 32 29 28 28 27 26 25 25 26 25 25 27 29 31 28 27
34 29 36 37 26 17 18 18 13 4 10 16 20 23 15 22 30 40 26 29 32 41 32 22 21 19 31 12 10 8 5 10 6 3 7 20 37 42 36 32 31 29 27 25 24 25 25 25 27 28 32 33 29 29
36 33 23 17 14 21 10 21 16 9 8 7 12 9 11 12 19 31 15 28 34 37 38 36 28 24 13 9 12 10 13 13 13 11 12 19 26 37 37 32 31 30 28 25 23 23 24 26 31 29 29 31 32 30
32 26 16 21 20 13 12 11 12 8 9 9 7 7 9 13 9 11 11 26 22 32 31 31 30 22 21 23 17 19 19 18 13 12 14 18 24 32 34 32 31 28 26 26 26 26 27 28 30 31 31 33 32 30
14 15 11 10 16 10 13 13 11 9 9 11 9 8 5 14 8 8 14 27 32 25 29 35 28 25 24 25 23 20 18 16 14 16 18 18 21 27 31 32 31 29 28 30 32 32 30 31 33 32 32 33 33 31
12 18 15 23 18 12 13 11 15 12 8 9 10 8 10 5 8 8 7 4 15 24 22 24 22 21 23 22 17 18 15 15 14 15 14 19 24 32 38 37 35 34 32 31 32 35 35 34 34 34 34 34 35 32
7 9 13 10 7 11 9 7 11 8 10 13 8 10 10 9 9 7 12 8 4 7 9 12 15 20 16 20 19 17 17 14 12 7 11 16 19 25 33 39 39 35 35 34 33 37 39 38 37 36 32 31 31 33
5 12 10 18 7 9 5 8 10 13 10 11 11 14 8 4 5 8 11 7 2 9 12 15 18 18 13 22 20 14 15 14 8 8 7 12 13 23 26 30 33 35 36 37 36 38 40 38 36 35 32 29 28 29
8 11 22 15 11 13 14 11 9 7 5 8 6 3 5 8 11 14 8 4 1 4 12 17 20 23 17 16 16 16 14 12 12 8 12 15 16 21 24 26 33 37 41 43 41 39 41 37 34 32 31 30 29 30
9 13 7 11 6 6 4 7 11 11 5 4 4 9 14 15 11 8 5 5 6 8 10 20 26 29 25 21 17 14 11 7 4 6 6 6 6 13 24 33 38 40 46 49 51 43 47 44 37 31 26 23 23 22
6 6 9 8 4 9 12 11 13 13 11 9 5 6 11 4 7 7 7 8 5 4 12 24 25 23 20 17 17 10 7 7 5 6 6 7 12 9 19 34 34 44 49 41 47 46 45 46 39 35 32 27 26 24
8 7 7 5 7 8 7 5 6 4 5 4 4 4 6 5 4 4 15 10 2 8 15 22 24 21 20 15 12 7 5 7 1 1 7 14 20 23 19 34 36 46 47 44 43 43 43 43 38 35 31 31 31 29
7 8 3 5 7 10 8 6 5 4 5 6 10 8 7 8 7 8 5 3 3 13 16 20 20 20 17 14 12 9 8 7 6 6 11 18 12 17 29 27 32 43 51 43 36 38 40 41 37 32 33 32 27 28
Wind_Direction_500mb
299 302 304 306 305 302 300 303 304 304 299 292 286 291 301 302 306 310 305 296 253 260 287 287 284 288 286 285 294 333 330 357 348 4 334 350 320 335 308 325 339 318 324 339 328 316 349 360 343 14 301 304 323 357
301 303 305 308 309 310 302 300 304 311 312 302 282 282 291 302 305 300 297 296 271 247 274 288 289 277 252 263 283 277 296 300 335 352 327 304 312 328 315 309 324 329 4 311 321 331 347 330 325 329 344 340 19 23
299 301 302 303 304 304 309 303 301 309 316 309 297 283 279 290 290 298 290 267 257 277 301 280 285 297 251 257 234 253 306 353 329 344 302 279 292 265 318 348 319 89 4 277 327 54 343 330 351 358 354 22 52 69
302 302 304 304 304 303 302 302 300 308 309 321 305 290 285 284 287 291 279 278 239 284 279 309 306 281 277 253 238 237 263 290 301 302 262 268 282 234 301 295 293 360 309 326 274 349 333 341 348 354 359 75 93 96
299 302 305 307 307 308 304 299 300 298 303 313 320 308 291 276 285 276 272 268 238 238 297 300 302 284 272 225 237 241 253 263 280 290 264 293 276 336 264 260 43 1 334 330 317 325 304 298 336 353 41 91 99 106
298 299 302 303 305 307 309 305 297 299 303 306 311 314 289 278 273 263 295 264 234 217 288 290 317 281 255 233 225 243 244 240 243 289 291 268 341 309 312 302 76 319 299 284 280 309 318 335 358 54 78 92 112 115
295 297 300 302 304 306 308 309 302 298 298 309 299 309 291 266 260 237 240 216 193 202 258 279 267 181 221 223 238 221 220 235 245 285 252 273 286 233 308 280 264 323 319 337 340 352 353 16 37 77 99 92 103 112
299 300 300 301 302 306 307 310 302 299 305 305 318 302 275 264 262 273 274 244 212 213 248 269 271 261 190 240 205 205 204 216 215 249 263 268 211 220 256 220 268 321 305 347 5 18 24 39 75 104 103 109 100 97
301 302 301 301 300 304 309 310 303 300 304 311 300 290 264 257 244 253 248 203 227 224 273 252 267 313 196 240 270 223 260 243 228 246 263 308 262 17 319 333 356 355 352 347 26 45 67 80 90 104 118 119 117 113
299 305 310 309 304 305 312 312 304 299 303 288 280 267 259 234 248 184 160 178 196 226 234 250 262 268 292 291 256 178 209 217 243 221 323 274 189 94 62 40 42 103 127 39 332 54 80 93 107 115 119 128 126 120
296 300 308 311 308 301 313 328 321 317 276 239 239 228 268 266 185 231 201 194 199 236 222 243 236 244 239 255 316 254 151 145 267 107 281 222 253 122 124 123 121 121 118 72 91 80 126 134 134 133 130 130 131 128
297 300 303 311 311 291 304 299 307 299 264 240 253 277 246 211 225 237 204 207 208 242 191 235 201 212 207 214 254 233 257 220 265 273 244 254 91 116 136 143 138 137 132 122 126 110 119 135 140 142 141 137 135 131
293 298 298 304 308 286 288 278 251 290 269 257 269 253 211 209 234 228 203 206 219 216 233 205 199 195 201 228 258 258 242 235 233 254 238 23 103 124 134 137 146 138 137 133 138 129 115 133 144 147 143 143 139 134
287 290 292 294 300 293 273 265 250 288 225 236 222 241 223 191 226 207 250 298 224 229 308 261 209 212 235 182 251 252 195 253 242 245 347 103 116 129 134 144 144 140 131 144 138 133 130 134 141 149 151 146 132 129
282 284 284 285 294 289 251 253 266 232 208 231 215 238 225 243 275 284 285 286 253 257 275 265 228 252 228 255 234 304 246 233 263 54 17 95 129 137 138 141 138 137 136 133 132 134 138 135 134 140 147 146 142 139
280 282 279 282 291 252 233 252 225 209 221 231 227 250 251 270 260 266 246 255 236 264 263 251 257 236 206 228 215 223 247 10 9 54 82 125 143 141 142 146 149 142 139 138 136 130 131 131 135 138 142 145 140 137
268 263 271 274 259 228 223 256 205 203 225 222 233 234 261 278 281 281 244 228 218 278 235 254 240 209 208 216 214 229 204 210 39 67 101 143 155 151 148 139 148 144 140 139 138 141 137 135 136 137 139 144 147 148
253 257 262 271 228 263 226 209 205 221 230 230 237 249 257 261 277 252 239 228 250 268 251 216 285 230 198 243 218 216 154 91 66 4 120 157 158 156 154 147 144 142 142 144 145 144 145 151 152 156 156 157 159 163
249 246 245 251 235 215 204 209 206 231 228 244 239 248 257 260 253 246 234 224 246 262 269 213 234 236 230 232 253 24 85 65 116 156 135 163 164 164 163 162 164 164 164 163 159 159 165 165 163 168 170 170 169 169
243 244 223 214 223 225 214 220 200 230 249 245 246 254 231 250 254 242 230 231 246 247 223 224 235 230 272 169 107 325 18 104 163 158 152 169 171 169 172 173 176 177 176 176 174 169 171 172 179 181 186 183 181 182
230 235 221 216 245 226 253 204 224 228 242 242 245 227 235 242 229 230 227 219 222 233 230 235 246 228 267 179 102 217 191 230 227 82 173 172 177 182 178 178 178 178 180 182 184 185 183 186 187 186 188 185 185 189
206 197 202 220 211 200 232 230 256 296 226 241 270 201 238 221 232 224 222 222 229 231 228 231 244 256 230 203 207 218 198 182 212 187 179 171 180 185 186 187 185 187 189 190 191 191 190 190 188 187 189 187 187 188
189 193 198 180 193 206 243 194 204 227 235 248 217 212 223 215 197 190 220 225 229 230 234 231 234 242 218 227 211 194 211 210 211 209 168 189 189 190 187 190 191 189 189 191 192 190 186 190 184 181 184 186 184 188
193 173 179 189 204 202 182 199 199 239 223 237 219 224 220 199 205 209 238 231 232 225 226 219 235 211 214 219 223 217 198 211 214 192 199 200 188 186 196 193 192 192 190 188 185 184 186 181 180 176 181 179 181 187
168 199 204 190 194 215 198 177 190 209 231 191 193 250 194 184 200 235 221 213 207 216 206 208 201 213 211 217 212 201 183 205 211 199 211 211 196 181 190 195 195 192 189 183 182 182 182 180 176 179 179 180 180 182
198 187 205 199 179 201 196 187 186 208 187 193 214 222 183 213 228 224 172 129 175 185 197 185 201 217 200 213 191 182 169 197 201 223 205 211 201 186 188 196 194 194 197 193 187 185 182 182 179 181 182 186 188 188
213 183 194 228 208 192 202 171 171 189 199 196 202 193 199 225 222 98 104 70 130 154 182 193 215 217 198 212 162 169 163 184 203 230 195 205 205 206 201 200 201 200 199 195 191 187 183 180 179 180 182 187 194 193
207 193 201 172 174 195 221 182 198 200 203 206 191 196 207 236 85 107 120 92 166 183 191 211 221 220 166 181 146 162 166 166 164 161 171 191 208 213 211 212 206 204 198 194 191 187 187 187 188 191 195 201 208 216
216 169 150 161 191 202 212 221 213 173 166 205 204 189 78 77 113 125 104 64 23 172 182 174 174 176 156 141 150 161 165 177 180 187 229 218 215 225 221 213 199 196 194 190 191 192 193 194 196 201 207 214 221 222
163 163 164 169 200 216 159 69 83 100 113 110 89 130 119 124 123 98 61 27 27 82 154 156 161 167 166 158 160 160 179 197 248 261 291 342 313 246 221 209 195 193 190 190 185 191 197 197 202 201 202 210 218 221
163 180 170 166 133 101 106 109 92 117 116 101 116 124 114 188 111 77 41 360 348 153 164 149 158 161 164 166 161 178 201 211 226 270 265 288 297 265 219 203 202 193 195 198 190 192 194 194 200 206 211 220 221 220
176 206 179 152 128 135 152 125 97 102 127 138 126 119 136 146 135 61 358 4 23 180 173 145 146 151 146 147 142 151 139 96 101 267 311 314 300 280 225 193 184 185 183 188 196 195 196 198 204 208 219 225 223 221
169 170 198 135 166 176 174 169 197 124 64 56 43 9 15 13 63 5 21 39 33 164 142 166 137 130 129 118 113 105 110 117 119 45 14 0 10 152 158 167 177 190 184 188 193 198 199 201 208 217 219 223 223 224
Wind_Speed_850mb
47 47 48 48 49 51 51 51 51 51 50 48 44 46 49 54 45 42 33 30 21 18 54 39 33 42 38 33 21 33 26 16 11 15 10 14 10 11 12 23 7 9 14 12 14 10 10 61 32 18 27 59 40 40
44 44 45 45 45 44 45 45 46 46 44 45 48 47 51 51 46 41 39 28 18 30 47 63 51 46 52 41 35 16 26 26 11 6 6 8 16 6 18 8 9 4 9 11 10 9 22 43 27 56 37 30 31 34
45 45 47 49 47 46 44 42 42 43 46 46 44 46 50 49 42 41 35 20 17 24 51 30 27 21 25 25 28 18 5 14 16 18 7 7 8 4 9 9 16 2 10 8 18 7 32 27 55 62 30 29 29 35
44 44 44 46 47 48 45 45 43 43 43 45 40 41 47 42 32 38 35 24 22 15 15 12 13 21 23 23 27 38 41 32 26 31 10 8 7 8 5 11 10 9 23 19 14 12 35 15 55 49 22 24 36 45
43 44 44 45 47 47 47 46 44 45 47 47 45 35 31 25 30 30 31 33 26 15 15 36 56 15 5 28 38 31 31 30 17 15 8 15 10 10 3 7 2 10 9 9 7 28 13 33 51 25 24 30 45 58
44 45 45 46 47 47 47 45 43 44 44 39 35 33 27 24 25 15 12 12 28 25 12 10 21 26 21 19 21 23 22 18 17 14 20 14 4 8 6 4 2 8 14 21 13 43 33 33 26 24 34 37 52 62
44 44 44 45 46 47 48 45 41 39 37 34 33 27 27 26 27 20 11 8 14 30 8 16 10 7 7 19 24 17 15 16 18 12 10 16 9 7 6 5 3 11 13 17 18 22 15 25 17 27 41 53 65 69
41 41 41 42 43 44 46 43 36 32 31 27 22 21 24 22 27 36 30 34 15 16 11 8 11 19 17 20 19 19 16 16 12 10 22 20 9 3 4 6 3 7 10 12 14 14 11 13 21 32 45 52 58 63
39 40 41 40 39 40 43 38 30 23 25 19 18 22 20 22 16 13 11 16 19 18 9 11 9 5 8 21 13 7 6 6 7 8 16 9 8 4 9 13 7 3 1 7 10 11 14 21 22 25 35 42 51 49
39 39 39 39 38 38 39 31 17 22 20 20 21 11 10 9 13 7 16 15 21 14 15 12 30 19 12 19 9 14 9 4 4 10 9 7 5 8 4 6 5 6 6 3 4 7 10 17 23 25 34 39 44 50
37 37 38 36 34 33 31 20 18 21 20 20 8 11 12 8 10 8 11 11 14 9 15 18 34 24 30 15 11 11 4 2 5 1 6 6 2 9 10 8 9 10 6 4 6 9 8 14 22 31 35 42 47 51
36 37 38 37 35 29 24 14 18 26 18 10 10 13 9 11 14 9 7 10 14 10 20 24 16 26 9 6 12 5 3 6 8 3 2 5 8 19 10 12 14 11 8 8 11 13 12 15 19 26 32 38 47 55
40 41 41 37 35 30 21 17 19 33 37 22 8 7 9 12 9 9 13 9 8 10 12 10 10 15 13 15 12 5 7 7 4 2 5 4 21 15 14 14 16 11 14 9 16 17 17 17 20 26 36 38 42 41
46 46 46 39 37 28 22 19 20 26 29 11 10 9 11 10 12 15 21 14 12 5 17 25 17 14 15 10 9 7 2 4 5 4 2 8 22 19 19 16 20 19 15 16 19 21 23 24 25 30 37 41 36 38
48 50 48 42 36 30 25 22 22 35 23 13 11 10 18 29 29 12 12 11 9 13 17 20 16 17 7 7 6 6 5 8 4 6 7 21 24 21 26 22 20 24 24 23 22 24 27 33 34 34 38 39 40 37
52 49 50 44 29 20 21 24 29 55 14 12 16 11 30 24 22 24 22 13 14 34 37 22 7 7 11 6 8 13 7 7 6 6 20 16 22 23 24 27 24 24 26 26 25 27 30 31 34 36 36 35 35 30
45 54 45 40 25 29 28 27 43 21 17 13 16 34 43 49 37 21 13 24 36 47 18 11 10 11 6 7 8 5 3 3 9 8 12 17 26 27 25 26 27 28 28 28 28 28 27 27 28 28 29 27 26 25
53 42 37 29 23 24 38 48 26 17 18 26 20 32 39 33 29 15 23 31 36 39 39 10 15 11 6 5 4 4 4 12 6 8 13 24 28 31 29 29 29 29 27 28 27 26 29 31 31 28 27 26 25 24
47 35 30 32 34 27 22 26 22 11 30 30 32 36 25 28 33 36 36 36 48 54 11 8 12 7 11 9 8 2 1 6 12 6 16 26 33 34 32 29 27 25 23 23 24 23 23 26 23 25 26 29 28 29
38 42 47 42 29 18 14 12 16 13 16 22 34 42 23 32 33 33 34 40 34 24 16 8 9 11 19 9 6 5 5 5 10 15 19 26 33 34 32 29 27 26 24 22 21 23 22 23 23 28 28 29 27 27
34 35 39 54 38 36 10 9 16 15 14 15 22 31 21 28 32 31 35 35 33 12 14 24 17 15 23 7 4 1 5 5 5 2 19 30 40 36 32 29 28 28 27 26 25 25 26 25 25 27 29 31 28 27
34 29 36 37 26 17 18 18 13 4 10 16 20 23 15 22 30 40 26 29 32 41 32 22 21 19 31 12 10 8 5 10 6 3 7 20 37 42 36 32 31 29 27 25 24 25 25 25 27 28 32 33 29 29
36 33 23 17 14 21 10 21 16 9 8 7 12 9 11 12 19 31 15 28 34 37 38 36 28 24 13 9 12 10 13 13 13 11 12 19 26 37 37 32 31 30 28 25 23 23 24 26 31 29 29 31 32 30
32 26 16 21 20 13 12 11 12 8 9 9 7 7 9 13 9 11 11 26 22 32 31 31 30 22 21 23 17 19 19 18 13 12 14 18 24 32 34 32 31 28 26 26 26 26 27 28 30 31 31 33 32 30
14 15 11 10 16 10 13 13 11 9 9 11 9 8 5 14 8 8 14 27 32 25 29 35 28 25 24 25 23 20 18 16 14 16 18 18 21 27 31 32 31 29 28 30 32 32 30 31 33 32 32 33 33 31
12 18 15 23 18 12 13 11 15 12 8 9 10 8 10 5 8 8 7 4 15 24 22 24 22 21 23 22 17 18 15 15 14 15 14 19 24 32 38 37 35 34 32 31 32 35 35 34 34 34 34 34 35 32
7 9 13 10 7 11 9 7 11 8 10 13 8 10 10 9 9 7 12 8 4 7 9 12 15 20 16 20 19 17 17 14 12 7 11 16 19 25 33 39 39 35 35 34 33 37 39 38 37 36 32 31 31 33
5 12 10 18 7 9 5 8 10 13 10 11 11 14 8 4 5 8 11 7 2 9 12 15 18 18 13 22 20 14 15 14 8 8 7 12 13 23 26 30 33 35 36 37 36 38 40 38 36 35 32 29 28 29
8 11 22 15 11 13 14 11 9 7 5 8 6 3 5 8 11 14 8 4 1 4 12 17 20 23 17 16 16 16 14 12 12 8 12 15 16 21 24 26 33 37 41 43 41 39 41 37 34 32 31 30 29 30
9 13 7 11 6 6 4 7 11 11 5 4 4 9 14 15 11 8 5 5 6 8 10 20 26 29 25 21 17 14 11 7 4 6 6 6 6 13 24 33 38 40 46 49 51 43 47 44 37 31 26 23 23 22
6 6 9 8 4 9 12 11 13 13 11 9 5 6 11 4 7 7 7 8 5 4 12 24 25 23 20 17 17 10 7 7 5 6 6 7 12 9 19 34 34 44 49 41 47 46 45 46 39 35 32 27 26 24
8 7 7 5 7 8 7 5 6 4 5 4 4 4 6 5 4 4 15 10 2 8 15 22 24 21 20 15 12 7 5 7 1 1 7 14 20 23 19 34 36 46 47 44 43 43 43 43 38 35 31 31 31 29
7 8 3 5 7 10 8 6 5 4 5 6 10 8 7 8 7 8 5 3 3 13 16 20 20 20 17 14 12 9 8 7 6 6 11 18 12 17 29 27 32 43 51 43 36 38 40 41 37 32 33 32 27 28
Wind_Direction_850mb
299 302 304 306 305 302 300 303 304 304 299 292 286 291 301 302 306 310 305 296 253 260 287 287 284 288 286 285 294 333 330 357 348 4 334 350 320 335 308 325 339 318 324 339 328 316 349 360 343 14 301 304 323 357
301 303 305 308 309 310 302 300 304 311 312 302 282 282 291 302 305 300 297 296 271 247 274 288 289 277 252 263 283 277 296 300 335 352 327 304 312 328 315 309 324 329 4 311 321 331 347 330 325 329 344 340 19 23
299 301 302 303 304 304 309 303 301 309 316 309 297 283 279 290 290 298 290 267 257 277 301 280 285 297 251 257 234 253 306 353 329 344 302 279 292 265 318 348 319 89 4 277 327 54 343 330 351 358 354 22 52 69
302 302 304 304 304 303 302 302 300 308 309 321 305 290 285 284 287 291 279 278 239 284 279 309 306 281 277 253 238 237 263 290 301 302 262 268 282 234 301 295 293 360 309 326 274 349 333 341 348 354 359 75 93 96
299 302 305 307 307 308 304 299 300 298 303 313 320 308 291 276 285 276 272 268 238 238 297 300 302 284 272 225 237 241 253 263 280 290 264 293 276 336 264 260 43 1 334 330 317 325 304 298 336 353 41 91 99 106
298 299 302 303 305 307 309 305 297 299 303 306 311 314 289 278 273 263 295 264 234 217 288 290 317 281 255 233 225 243 244 240 243 289 291 268 341 309 312 302 76 319 299 284 280 309 318 335 358 54 78 92 112 115
295 297 300 302 304 306 308 309 302 298 298 309 299 309 291 266 260 237 240 216 193 202 258 279 267 181 221 223 238 221 220 235 245 285 252 273 286 233 308 280 264 323 319 337 340 352 353 16 37 77 99 92 103 112
299 300 300 301 302 306 307 310 302 299 305 305 318 302 275 264 262 273 274 244 212 213 248 269 271 261 190 240 205 205 204 216 215 249 263 268 211 220 256 220 268 321 305 347 5 18 24 39 75 104 103 109 100 97
301 302 301 301 300 304 309 310 303 300 304 311 300 290 264 257 244 253 248 203 227 224 273 252 267 313 196 240 270 223 260 243 228 246 263 308 262 17 319 333 356 355 352 347 26 45 67 80 90 104 118 119 117 113
299 305 310 309 304 305 312 312 304 299 303 288 280 267 259 234 248 184 160 178 196 226 234 250 262 268 292 291 256 178 209 217 243 221 323 274 189 94 62 40 42 103 127 39 332 54 80 93 107 115 119 128 126 120
296 300 308 311 308 301 313 328 321 317 276 239 239 228 268 266 185 231 201 194 199 236 222 243 236 244 239 255 316 254 151 145 267 107 281 222 253 122 124 123 121 121 118 72 91 80 126 134 134 133 130 130 131 128
297 300 303 311 311 291 304 299 307 299 264 240 253 277 246 211 225 237 204 207 208 242 191 235 201 212 207 214 254 233 257 220 265 273 244 254 91 116 136 143 138 137 132 122 126 110 119 135 140 142 141 137 135 131
293 298 298 304 308 286 288 278 251 290 269 257 269 253 211 209 234 228 203 206 219 216 233 205 199 195 201 228 258 258 242 235 233 254 238 23 103 124 134 137 146 138 137 133 138 129 115 133 144 147 143 143 139 134
287 290 292 294 300 293 273 265 250 288 225 236 222 241 223 191 226 207 250 298 224 229 308 261 209 212 235 182 251 252 195 253 242 245 347 103 116 129 134 144 144 140 131 144 138 133 130 134 141 149 151 146 132 129
282 284 284 285 294 289 251 253 266 232 208 231 215 238 225 243 275 284 285 286 253 257 275 265 228 252 228 255 234 304 246 233 263 54 17 95 129 137 138 141 138 137 136 133 132 134 138 135 134 140 147 146 142 139
280 282 279 282 291 252 233 252 225 209 221 231 227 250 251 270 260 266 246 255 236 264 263 251 257 236 206 228 215 223 247 10 9 54 82 125 143 141 142 146 149 142 139 138 136 130 131 131 135 138 142 145 140 137
268 263 271 274 259 228 223 256 205 203 225 222 233 234 261 278 281 281 244 228 218 278 235 254 240 209 208 216 214 229 204 210 39 67 101 143 155 151 148 139 148 144 140 139 138 141 137 135 136 137 139 144 147 148
253 257 262 271 228 263 226 209 205 221 230 230 237 249 257 261 277 252 239 228 250 268 251 216 285 230 198 243 218 216 154 91 66 4 120 157 158 156 154 147 144 142 142 144 145 144 145 151 152 156 156 157 159 163
249 246 245 251 235 215 204 209 206 231 228 244 239 248 257 260 253 246 234 224 246 262 269 213 234 236 230 232 253 24 85 65 116 156 135 163 164 164 163 162 164 164 164 163 159 159 165 165 163 168 170 170 169 169
243 244 223 214 223 225 214 220 200 230 249 245 246 254 231 250 254 242 230 231 246 247 223 224 235 230 272 169 107 325 18 104 163 158 152 169 171 169 172 173 176 177 176 176 174 169 171 172 179 181 186 183 181 182
230 235 221 216 245 226 253 204 224 228 242 242 245 227 235 242 229 230 227 219 222 233 230 235 246 228 267 179 102 217 191 230 227 82 173 172 177 182 178 178 178 178 180 182 184 185 183 186 187 186 188 185 185 189
206 197 202 220 211 200 232 230 256 296 226 241 270 201 238 221 232 224 222 222 229 231 228 231 244 256 230 203 207 218 198 182 212 187 179 171 180 185 186 187 185 187 189 190 191 191 190 190 188 187 189 187 187 188
189 193 198 180 193 206 243 194 204 227 235 248 217 212 223 215 197 190 220 225 229 230 234 231 234 242 218 227 211 194 211 210 211 209 168 189 189 190 187 190 191 189 189 191 192 190 186 190 184 181 184 186 184 188
193 173 179 189 204 202 182 199 199 239 223 237 219 224 220 199 205 209 238 231 232 225 226 219 235 211 214 219 223 217 198 211 214 192 199 200 188 186 196 193 192 192 190 188 185 184 186 181 180 176 181 179 181 187
168 199 204 190 194 215 198 177 190 209 231 191 193 250 194 184 200 235 221 213 207 216 206 208 201 213 211 217 212 201 183 205 211 199 211 211 196 181 190 195 195 192 189 183 182 182 182 180 176 179 179 180 180 182
198 187 205 199 179 201 196 187 186 208 187 193 214 222 183 213 228 224 172 129 175 185 197 185 201 217 200 213 191 182 169 197 201 223 205 211 201 186 188 196 194 194 197 193 187 185 182 182 179 181 182 186 188 188
213 183 194 228 208 192 202 171 171 189 199 196 202 193 199 225 222 98 104 70 130 154 182 193 215 217 198 212 162 169 163 184 203 230 195 205 205 206 201 200 201 200 199 195 191 187 183 180 179 180 182 187 194 193
207 193 201 172 174 195 221 182 198 200 203 206 191 196 207 236 85 107 120 92 166 183 191 211 221 220 166 181 146 162 166 166 164 161 171 191 208 213 211 212 206 204 198 194 191 187 187 187 188 191 195 201 208 216
216 169 150 161 191 202 212 221 213 173 166 205 204 189 78 77 113 125 104 64 23 172 182 174 174 176 156 141 150 161 165 177 180 187 229 218 215 225 221 213 199 196 194 190 191 192 193 194 196 201 207 214 221 222
163 163 164 169 200 216 159 69 83 100 113 110 89 130 119 124 123 98 61 27 27 82 154 156 161 167 166 158 160 160 179 197 248 261 291 342 313 246 221 209 195 193 190 190 185 191 197 197 202 201 202 210 218 221
163 180 170 166 133 101 106 109 92 117 116 101 116 124 114 188 111 77 41 360 348 153 164 149 158 161 164 166 161 178 201 211 226 270 265 288 297 265 219 203 202 193 195 198 190 192 194 194 200 206 211 220 221 220
176 206 179 152 128 135 152 125 97 102 127 138 126 119 136 146 135 61 358 4 23 180 173 145 146 151 146 147 142 151 139 96 101 267 311 314 300 280 225 193 184 185 183 188 196 195 196 198 204 208 219 225 223 221
169 170 198 135 166 176 174 169 197 124 64 56 43 9 15 13 63 5 21 39 33 164 142 166 137 130 129 118 113 105 110 117 119 45 14 0 10 152 158 167 177 190 184 188 193 198 199 201 208 217 219 223 223 224